www.pogodaiklimat.ru

Погода и климат >> Архив погоды >> Россия >> Чукотка >> Илирней


ПОГОДА в Илирнее

  • Прогноз погоды в Илирнее
  • Монитор погоды в Илирнее
  • Климат города

АРХИВ ПОГОДЫ в Илирнее

Время (UTC), дата Ветер
(напр.,м/с)
 
Видим.   Явления Облачность Т
(С)
Тd
(С)
f
(%)
Тe
(С)
Тes
(С)
Комфортность P
(гПа)
Po
(гПа)
Тmin
(С)
Tmax
(С)
R
(мм)
R24
(мм)
S
(см)
09 19.06 ЮВ 1
{5}
50 км 9/9 600 м
[Sc]
+16.2 +8.6 61 +17 +17 1004.8 963.9 +18.1
12 19.06 штиль 0
{4}
50 км 10/4 600 м
[Sc Ac As]
+11.7 +9.5 86 +11 +11 1005.1 963.6
15 19.06 штиль 0
{1}
50 км 10/0
[Ac und]
+9.3 +8.5 95 +8 +8 1004.6 962.8
18 19.06 штиль 0
{1}
50 км 10/0
[Ac und]
+10.3 +8.6 89 +10 +10 1003.3 961.6
21 19.06 штиль 0
{1}
50 км 10/0
[Ac und]
+14.4 +9.8 74 +14 +17 1001.8 960.7 +9.3
00 20.06 штиль 0
{6}
50 км {дождь} 10/0
[Ac und]
+15.3 +10.7 74 +15 +20 999.9 959.2
03 20.06 В 1
{5}
50 км 10/0
[Ac und]
+18.0 +8.8 55 +19 +23 998.3 957.9
06 20.06 СВ 3
{7}
50 км 8/3 600 м
[Sc Ac trans Cs]
+18.9 +7.3 47 +20 +21 996.4 956.3
09 20.06 ЮВ 1
{7}
50 км 10/0
[Ac und]
+15.8 +9.7 67 +17 +17 996.8 956.2 +19.8 0.8
12 20.06 штиль 0
{3}
50 км 10/0
[Ac und]
+12.0 +10.3 89 +11 +11 996.9 955.8
15 20.06 З 1
{6}
50 км 10/0
[Ac und]
+9.6 +8.0 90 +9 +9 997.7 956.3
18 20.06 штиль 0
{4}
50 км 10/0
[Ac und]
+7.9 +6.1 88 +7 +8 1000.0 958.2
21 20.06 З 4
{7}
50 км 10/0
[Ac und]
+8.3 +5.6 83 +5 +7 1001.8 959.9 +7.6
00 21.06 С 1
{6}
50 км 10/8 600 м
[Sc Ac As]
+11.2 +6.8 74 +11 +12 1002.7 961.2
03 21.06 СЗ 2
{6}
50 км 10/9 600 м
[Sc Ac As]
+13.1 +5.1 58 +13 +13 1002.9 961.7
06 21.06 СВ 3
{6}
50 км 10/10 600 м
[Sc]
+13.3 +6.7 64 +12 +12 1003.9 962.7
09 21.06 СВ 1
{6}
50 км 8/6 600 м
[Sc Ac As]
+9.9 +6.2 78 +10 +10 1005.9 964.1 +14.1
12 21.06 В 1
{7}
50 км 10/3 600 м
[Sc Ac As]
+7.3 +4.5 82 +6 +6 1007.8 965.5
15 21.06 штиль 0
{4}
50 км 6/0
[Ac trans]
+5.3 +4.1 92 +4 +4 1008.2 965.7
18 21.06 ЮВ 1
{4}
50 км 8/0 600 м
[Ac trans]
+6.8 +4.2 83 +6 +7 1007.8 965.8
21 21.06 В 3
{6}
50 км 10/0
[Ac und]
+9.8 +5.1 73 +8 +9 1007.3 965.4 +5.3
00 22.06 В 4
{8}
50 км слабый дождь 10/0
[As op]
+10.4 +8.0 85 +8 +9 1006.7 965.0
03 22.06 СВ 3
{8}
50 км {дождь} 10/8 600 м
[Sc Ac und]
+12.2 +9.3 82 +11 +11 1005.8 964.3
06 22.06 ЮВ 2
{8}
50 км {дождь} 10/3 600 м
[Sc Ac und]
+12.3 +6.8 69 +11 +12 1005.3 963.8
09 22.06 СЗ 1
{5}
50 км 10/0
[Ac und]
+9.8 +8.1 89 +9 -64 1006.2 964.4 +12.8 0.4
12 22.06 штиль 0
{3}
20 км слабый дождь 10/0
[As trans]
+8.3 +7.7 96 +7 +7 1007.3 965.1
15 22.06 ЮЗ 2
{4}
20 км слабый дождь 10/0
[As trans]
+7.6 +6.7 94 +5 +5 1007.4 965.2
18 22.06 З 3
{7}
50 км {дождь} 10/0
[Ac und]
+8.3 +5.5 83 +6 +6 1008.3 966.1
21 22.06 З 2
{7}
50 км 10/0
[Ac und]
+10.8 +6.1 73 +10 +12 1008.2 966.5 +7.4 0.9
00 23.06 СЗ 3
{8}
50 км 8/8 600 м
[Cu med, cong Ac trans]
+14.8 +5.6 54 +14 +16 1007.1 966.0
03 23.06 З 5
{10}
50 км 6/6 600 м
[Cu med, cong]
+16.9 +3.6 41 +16 +18 1006.2 965.4
06 23.06 З 3
{10}
50 км 3/3 600 м
[Cu med, cong]
+18.7 +3.0 35 +19 +22 1005.0 964.5
09 23.06 З 1
{7}
50 км 4/4 600 м
[Cu med, cong]
+19.0 +4.1 37 +20 +21 1004.6 964.1 +19.0
12 23.06 ЮВ 1
{4}
50 км ясно +9.2 +4.3 71 +9 +9 1006.2 964.3
15 23.06 штиль 0
{3}
50 км ясно +5.4 +3.7 89 +4 +4 1006.1 963.6
18 23.06 штиль 0
{2}
50 км ясно +10.1 +5.5 73 +10 +12 1003.9 962.2
21 23.06 ЮВ 2
{4}
50 км ясно +17.5 +8.1 54 +18 +25 1000.9 960.4 +5.4
00 24.06 ЮЗ 2
{8}
50 км 10/0
[Ac und]
+21.1 +7.3 41 +22 +25 комфорт 999.1 959.1
03 24.06 Ю 4
{9}
50 км 8/0
[Ac trans]
+22.0 +5.9 35 +23 +26 комфорт 997.8 958.0
06 24.06 Ю 5
{9}
50 км 10/0
[Ac und]
+22.7 +4.8 31 +23 +24 комфорт 996.7 957.0
09 24.06 З 4
{8}
50 км 10/0
[Ac und]
+20.5 +4.5 35 +21 +21 комфорт 997.2 957.1 +23.0
12 24.06 Ю 2
{9}
50 км {дождь} 10/0
[Ac und]
+14.6 +9.8 73 +14 +14 997.6 956.9
15 24.06 штиль 0
{5}
20 км слабый дождь 10/0
[As trans]
+12.8 +10.3 85 +12 +12 998.9 957.8
18 24.06 штиль 0
{4}
4000 м слабый дождь 10/0
[As op]
+11.8 +11.2 96 +11 +12 999.4 958.2
21 24.06 З 5
{12}
4000 м слабый дождь 10/0
[As op]
+5.7 +4.1 89 +1 +2 1004.3 962.0 +5.7 2
00 25.06 СЗ 2
{10}
50 км {дождь} 10/6 600 м
[Sc Ac As]
+6.3 +3.5 82 +4 +5 1006.8 964.6
03 25.06 СЗ 2
{8}
20 км слабый дождь 10/3 600 м
[Sc Ac As]
+4.3 +1.8 84 +2 +4 1009.1 966.3
06 25.06 СВ 2
{7}
50 км {дождь} 10/5 600 м
[Sc Ac As]
+3.7 +2.2 90 +1 +1 1010.5 967.5
09 25.06 С 1
{4}
50 км 10/8 600 м
[Sc Ac As]
+3.7 +0.3 78 +2 +2 1011.9 968.9 +6.3 2
12 25.06 СЗ 2
{5}
50 км 10/0
[Ac und]
+2.4 -1.6 75 -1 -1 1012.7 969.4
15 25.06 СЗ 2
{4}
50 км 10/0
[Ac und]
+1.2 -3.3 72 -2 -2 1012.8 969.4
18 25.06 СЗ 2
{6}
50 км 5/0
[Ac trans]
+2.0 -4.1 64 -1 +1 1012.5 969.2
21 25.06 С 3
{7}
50 км 6/0
[Ac trans]
+4.2 -4.0 55 +1 +5 1011.0 968.1 +1.2
00 26.06 СЗ 3
{7}
50 км 6/0
[Ac trans]
+6.8 -3.6 47 +4 +10 1010.1 967.5
03 26.06 С 1
{8}
50 км 3/0
[Ac trans]
+9.0 -3.6 41 +9 +18 1007.8 965.8
06 26.06 З 4
{7}
50 км 4/0
[Ac trans]
+10.6 -2.5 40 +9 +11 1006.3 964.5

 

Местоположение метеостанции Илирней (Чукотка, Россия): широта 67.25 долгота 167.90 высота над уровнем моря 354 м.

В архиве по умолчанию представлена погода в Илирнее за последнюю неделю. Архивные данные за месяц целиком и за предыдущие месяцы, начиная с января 2011 года, Вы можете получить, выбрав интересующий диапазон дат из раскрывающегося списка и нажав кнопку "Ввод!".

Внимание! Время в таблицах - всемирное. Для получения местного времени необходимо прибавить поправку, которая в Илирнее равна 12 ч.

Смотрите также архив погоды в соседних городах и на ближайших метеорологических станциях:

Погода в Билибино (Чукотка, Россия) (109 км)
Погода в Баимке (Чукотка, Россия) (180 км)
Погода на Островном (Чукотка, Россия) (187 км)
Погода в Чауне (Чукотка, Россия) (215 км)
Погода в Эньмувееме (Чукотка, Россия) (255 км)
Погода в Раучуе (Чукотка, Россия) (257 км)
Погода в Майской (Чукотка, Россия) (276 км)
Погода в Певеке (Чукотка, Россия) (288 км)
Погода в 21 км (Чукотка, Россия) (290 км)
Погода в Комсомольской (Чукотка, Россия) (291 км)

Пояснения к столбцам:

Ветер - указаны скорость ветра в м/с - средняя за 10 мин, порывы в срок и между сроками (в фигурных скобках) и направление, откуда дует ветер: С - северный, СВ - северо-восточный, В - восточный, ЮВ - юго-восточный, Ю - южный, ЮЗ - юго-западный, З - западный, СЗ - северо-западный.
Видимость - горизонтальная дальность видимости в метрах или километрах. При видимости от 1 до 10 км при отсутствии осадков обычно наблюдается дымка, при ухудшении видимости до 1 км и менее - туман. В сухую погоду видимость может ухудшаться дымом, пылью или мглою.
Явления - указаны атмосферные явления, наблюдавшиеся в срок или в последний час перед сроком; фигурными скобками обозначены явления, наблюдавшиеся между сроками (за 1-3 часа до срока); квадратными скобками обозначены град или гололедные отложения с указанием их диаметра в мм.
Облачность - указаны через наклонную черту общая и нижняя облачность в баллах и высота нижней границы облаков в метрах; квадратными скобками обозначены формы облаков: Ci - перистые, Cs - перисто-слоистые, Cc - перисто-кучевые, Ac - высококучевые, As - высокослоистые, Sc - слоисто-кучевые, Ns - слоисто-дождевые, Cu - кучевые, Cb - кучево-дождевые. Подробнее классификацию облаков см. в Атласе облаков (PDF).
T - Температура воздуха - температура, измеренная на высоте 2 м над землей.
Td - Температура точки росы - температура, при понижении до которой содержащийся в воздухе водяной пар достигнет насыщения.
f - Относительная влажность воздуха - влажноcть воздуха, измеренная на высоте 2 м над землей.
Te - Эффективная температура - температура, которую ощущает одетый по сезону человек в тени. Характеристика душности погоды. При расчете учитывается влияние влажности воздуха и скорости ветра на теплоощущения человека.
Tes - Эффективная температура на солнце - температура, которую ощущает человек, с поправкой на солнечный нагрев. Характеристика знойности погоды. Зависит от высоты солнца над горизонтом, облачности и скорости ветра. Ночью, в пасмурную погоду, а также при ветре 12 м/с и более поправка равна нулю.
P - Атмосферное давление - приведенное к уровню моря атмосферное давление.
Po - Атмосферное давление - измеренное на уровне метеостанции атмосферное давление.
Tmin - Минимальная температура - минимум температуры воздуха на высоте 2 м над землей.
Tmax - Максимальная температура - максимум температуры воздуха на высоте 2 м над землей.
R - Количество осадков - Количество выпавших осадков за период времени, мм. При наведении курсора мыши на число - период времени, за который выпало указанное количество осадков.
R24 - Количество осадков - Количество выпавших осадков за 24 часа, мм.
S - Снежный покров - Высота снежного покрова, см. При наведении курсора мыши на число - состояние снежного покрова и степень покрытия местности в баллах.